Dewpoint
73 72 72 72 71 72 71 71 71 71 71 71 71 73 73 73 73 73 74 74 76 76 75 76 77 76 77 76 77 76 77 75 75 75 74 76 74 73 71 72 72 71
74 73 74 72 73 74 72 72 73 72 72 72 72 73 73 72 73 73 74 73 76 75 75 76 76 76 76 76 76 74 74 76 73 78 75 74 74 75 73 73 71 73
74 74 73 72 72 73 71 72 73 72 72 72 72 72 73 74 73 74 74 73 74 75 75 76 75 76 76 75 75 75 75 75 75 76 75 74 76 75 74 73 71 72
74 74 73 72 72 73 71 72 72 73 72 73 72 72 72 73 73 73 74 76 73 75 75 75 75 75 75 76 74 74 75 75 75 76 76 76 77 76 75 74 75 73
74 74 74 73 73 73 72 71 71 73 72 73 72 73 74 73 74 73 74 74 73 74 75 75 75 75 75 75 74 73 75 75 75 75 74 74 75 76 75 74 73 72
74 74 74 73 72 72 72 71 72 73 73 73 72 73 73 74 73 73 74 74 73 74 75 75 75 75 74 75 75 73 74 76 74 75 74 74 74 74 74 75 73 73
73 73 73 72 72 72 72 72 72 73 72 73 73 72 72 74 73 73 74 74 74 75 74 74 74 75 75 74 75 73 73 75 75 75 75 74 74 74 74 74 75 74
73 73 73 72 72 72 72 72 72 72 72 73 72 72 72 73 72 73 74 73 74 74 74 74 74 74 74 75 75 74 73 74 75 74 74 74 74 74 74 75 74 73
73 73 73 72 71 71 72 71 72 72 72 72 72 72 72 72 72 72 74 74 73 74 74 74 74 74 74 74 74 74 74 74 74 75 75 74 74 74 74 73 73 73
72 72 72 71 70 70 71 71 71 71 73 71 72 72 71 72 72 71 73 74 73 73 73 73 74 74 74 74 74 74 74 74 73 74 75 75 74 74 74 73 72 72
71 72 71 71 70 70 70 71 70 70 72 71 71 72 72 72 74 73 73 73 72 73 73 73 73 74 74 73 74 74 74 74 73 74 74 75 74 74 76 74 73 72
71 71 71 71 70 70 70 70 70 70 71 72 71 71 72 72 71 72 74 73 73 73 74 73 74 74 73 73 74 74 74 74 74 74 73 73 73 74 74 75 74 74
70 70 70 70 70 69 69 70 69 70 71 72 73 72 73 73 72 72 72 73 72 75 74 74 74 74 74 73 73 73 73 74 74 74 74 74 74 74 74 74 73 72
69 69 69 70 69 69 69 69 69 69 71 71 72 72 70 70 72 72 71 73 74 74 74 74 74 72 74 75 75 74 74 74 73 73 73 74 74 73 73 72 71 71
71 72 72 72 72 71 70 69 68 69 70 70 72 71 71 70 70 70 72 73 73 73 73 75 74 75 75 75 76 75 75 73 73 73 73 72 73 73 72 72 72 72
71 71 71 72 72 72 71 70 68 69 69 69 69 69 69 70 69 71 70 70 71 72 74 73 72 71 73 72 73 75 75 75 74 74 73 73 73 71 73 74 73 72
70 70 71 71 72 72 72 70 70 70 70 70 70 71 72 73 70 69 68 69 70 69 68 67 67 67 68 65 67 71 75 74 74 73 73 73 72 72 71 72 72 71
70 70 70 71 72 72 72 71 71 71 71 71 72 72 72 72 71 70 69 69 69 68 67 66 64 64 61 64 66 68 73 74 74 74 73 73 73 73 72 72 72 71
70 70 70 70 71 72 72 71 71 71 71 72 72 72 73 72 71 70 69 68 67 66 65 64 63 62 60 62 63 64 66 74 72 72 71 70 71 71 72 72 72 72
69 68 69 70 71 72 72 71 71 71 72 72 73 72 72 71 71 70 68 66 65 64 63 62 61 60 59 60 60 62 64 69 72 71 71 71 72 72 73 72 72 72
69 69 68 68 69 70 71 70 71 71 71 72 72 72 71 71 71 70 67 66 64 62 61 59 58 58 57 59 59 60 63 73 72 73 72 74 74 74 73 73 72 71
69 69 69 69 69 69 70 70 70 70 70 71 72 71 72 72 71 69 66 65 64 62 60 59 59 57 56 56 57 59 64 72 72 73 73 73 73 72 71 72 71 69
69 69 68 68 69 71 71 71 71 70 70 71 70 71 71 70 70 69 68 65 64 62 59 59 58 58 55 55 56 58 67 70 73 73 73 72 71 70 69 69 68 68
69 69 69 69 70 70 70 70 70 70 70 71 70 70 70 69 69 68 68 67 64 62 60 58 58 57 54 54 56 60 69 71 73 73 72 72 71 70 70 70 70 70
69 69 69 69 69 69 69 69 70 70 70 70 70 70 70 69 69 67 66 66 65 64 63 59 58 59 54 53 54 57 65 69 71 72 72 71 70 68 66 65 65 67
69 69 69 69 68 68 68 69 69 69 69 69 69 69 69 68 68 67 66 66 65 63 61 60 58 58 58 53 53 54 58 64 65 69 70 70 69 67 65 65 65 64